SCP
0 0 0 0 0 0 0 0 0 0 0 0 0 0 0 0 0 0 1 0 0 0 0 0 0 0 0 0 0 0 0 0 0 0 0 0 0 0 0 0 0 0 0
0 0 0 0 0 0 0 0 0 0 0 0 0 0 0 0 0 1 1 0 0 0 0 0 0 0 0 0 0 0 0 0 0 0 0 0 0 0 0 0 0 0 0
0 0 0 0 0 0 0 0 0 0 0 0 0 1 1 1 1 1 1 0 0 0 0 0 0 0 0 0 0 0 0 0 0 0 0 0 0 0 0 0 0 0 0
0 0 0 0 0 0 0 0 0 0 0 0 1 1 1 1 1 1 0 0 0 0 0 0 0 0 0 0 0 0 0 0 0 0 0 0 0 0 0 0 0 0 0
0 0 0 0 0 0 0 0 0 0 0 0 1 1 1 1 1 0 0 0 0 0 0 0 0 0 0 0 0 0 0 0 0 0 0 0 0 0 0 0 0 0 0
0 0 0 0 0 0 0 0 0 0 0 1 0 1 0 0 0 0 0 0 0 0 0 0 0 0 0 0 0 0 0 0 0 0 0 0 0 0 0 0 0 0 0
0 0 0 1 1 0 1 1 1 1 1 1 0 0 0 0 0 0 0 0 0 0 0 0 0 0 0 0 0 0 0 0 0 0 0 0 0 0 0 0 0 0 0
1 1 1 1 1 1 1 1 1 1 0 0 0 0 0 0 0 0 0 0 0 0 0 0 0 0 0 0 0 0 0 0 0 0 0 0 0 0 0 0 0 0 0
1 2 1 1 1 1 1 1 1 0 0 0 0 0 0 0 0 0 0 0 0 0 0 0 0 0 0 0 0 0 0 0 0 0 0 0 0 0 0 0 0 0 0
1 1 2 1 1 1 2 1 1 1 1 0 0 0 0 0 0 0 0 0 0 0 0 0 0 0 0 0 0 0 0 0 0 0 0 0 0 0 0 0 0 0 0
1 0 1 1 1 1 1 1 1 1 1 0 0 0 0 0 0 0 0 0 0 0 0 0 0 0 0 0 0 0 0 0 0 0 0 0 0 0 0 0 0 0 0
1 1 1 2 1 1 1 1 1 1 0 0 0 0 0 0 0 0 0 0 0 0 0 0 0 0 0 0 0 0 0 0 0 0 0 0 0 0 0 0 0 0 0
1 2 2 2 2 1 1 1 0 0 0 0 0 0 0 0 0 0 0 0 0 0 0 0 0 0 0 0 0 0 0 0 0 0 0 0 0 0 0 0 0 0 0
1 2 3 3 1 1 0 0 0 0 0 0 0 0 0 0 0 0 0 0 0 0 0 0 0 0 0 0 0 0 0 0 0 0 0 0 0 0 0 0 0 0 0
1 3 2 2 0 0 0 0 0 0 0 0 0 0 0 0 0 0 0 0 0 0 0 0 0 0 0 0 0 0 0 0 0 0 0 0 0 0 0 0 0 0 0
3 1 1 0 0 0 0 0 0 0 0 0 0 0 0 0 0 0 0 0 0 0 0 0 0 0 0 0 0 0 0 0 0 0 0 0 0 0 0 0 0 0 0
3 2 0 0 0 0 0 0 0 0 0 0 0 0 0 0 0 0 0 0 0 0 0 0 0 0 0 0 0 0 0 0 0 0 0 0 0 0 0 0 0 0 0
0 0 0 0 0 0 0 0 0 0 0 0 0 0 0 0 0 0 0 0 0 0 0 0 0 0 0 0 0 0 0 0 0 0 0 0 0 0 0 0 0 -0 0
0 0 0 0 0 0 0 0 0 0 0 0 0 0 0 0 0 0 0 0 0 0 0 0 0 0 0 0 0 0 0 0 0 0 0 0 0 0 0 0 0 -0 0
0 0 0 0 0 0 0 0 0 0 0 0 0 0 0 0 0 0 0 0 0 0 0 0 0 0 0 0 0 0 0 0 0 0 0 0 0 0 0 0 0 0 -0
0 0 0 0 0 0 0 0 0 0 0 0 0 0 -0 0 0 0 0 0 0 0 0 0 0 0 0 0 0 0 0 0 0 0 0 0 0 0 0 0 0 0 -0
0 0 0 0 0 0 0 0 0 0 0 0 0 -0 0 0 0 0 0 0 0 0 0 0 0 0 0 0 0 0 0 0 0 0 0 0 0 0 0 0 0 -0 -0
0 0 0 0 0 0 0 0 0 0 0 0 -0 -0 0 0 0 0 0 0 0 0 0 0 0 0 0 0 0 0 0 0 0 0 0 0 0 0 0 0 -0 -0 -0
0 0 0 0 0 0 0 0 0 0 0 -0 -0 -0 -0 0 0 0 0 0 0 0 0 0 0 0 0 0 0 0 0 0 0 0 0 0 0 0 0 0 -0 -0 -0
0 0 0 0 0 0 0 0 -0 0 0 -0 -0 -0 -0 0 0 -0 0 0 0 0 0 0 0 0 0 0 0 0 0 0 0 0 0 0 0 0 0 0 0 -0 -0
0 0 0 0 -0 -0 0 0 0 0 -0 -0 -0 -0 -0 -0 0 -0 0 0 0 0 0 0 0 0 0 0 0 0 0 0 0 0 0 0 0 0 0 0 0 0 0
Wind_Speed_500mb
38 37 34 33 28 29 25 24 23 25 24 21 17 17 17 16 16 15 14 22 24 25 22 25 27 28 28 27 28 30 30 31 35 35 36 36 35 32 31 29 29 29 30
39 37 35 32 29 26 24 24 24 24 22 21 19 18 17 16 17 18 15 20 25 23 23 24 25 24 23 24 26 29 30 33 36 37 39 41 42 40 39 36 33 32 32
45 38 34 32 29 26 25 26 28 27 22 19 20 19 16 17 18 18 14 14 16 21 22 23 22 21 20 20 25 27 29 30 37 42 45 46 44 42 42 39 34 33 37
44 47 36 32 28 26 25 26 26 25 23 22 20 17 19 19 16 21 15 15 15 13 23 22 23 21 20 20 25 28 30 31 36 41 42 46 48 50 47 44 41 43 47
48 47 35 31 34 27 28 28 27 25 24 22 21 17 17 14 17 14 14 14 18 16 13 25 25 25 24 25 27 30 29 32 37 42 49 48 53 52 48 48 47 45 47
50 52 35 33 34 30 30 29 28 26 24 21 15 15 15 13 15 14 14 14 16 15 13 16 17 25 34 32 32 33 36 37 41 48 56 60 57 53 51 48 46 47 49
48 56 38 40 41 33 32 35 32 32 24 21 16 11 12 22 19 11 12 12 15 13 14 15 19 21 25 36 32 35 38 41 48 54 60 63 63 61 54 50 50 49 47
56 55 47 45 46 34 36 39 37 28 22 26 18 19 20 15 9 11 12 12 13 15 14 17 17 19 19 22 35 43 40 48 55 60 62 64 64 64 64 54 51 48 45
60 55 55 41 46 40 39 43 41 34 20 22 29 18 12 15 5 10 11 7 10 9 11 12 11 12 16 18 23 30 50 58 61 62 61 60 57 56 53 48 47 45 43
62 60 60 47 46 42 38 42 38 32 26 18 28 33 32 20 12 9 9 7 5 6 5 5 10 15 22 20 28 40 56 61 61 60 60 61 59 53 48 46 44 43 40
60 65 65 49 48 45 42 38 40 38 29 23 18 16 15 14 23 15 16 8 7 5 4 8 9 15 23 27 28 37 62 63 61 64 66 63 59 52 50 46 37 35 31
69 62 54 49 48 48 43 40 37 39 31 27 16 13 8 5 10 9 12 11 13 11 8 12 17 20 25 29 31 51 56 59 58 60 60 58 54 49 48 43 39 38 36
55 61 57 53 49 49 44 45 42 37 35 29 25 18 12 6 3 0 3 6 10 10 13 18 17 23 27 31 33 50 47 60 61 57 56 51 45 40 45 45 39 43 43
52 59 66 57 51 52 50 47 42 37 32 30 24 18 11 7 6 7 7 8 13 11 15 11 24 23 29 31 37 52 43 53 59 69 54 44 46 45 48 49 46 47 46
54 63 64 68 64 55 54 50 44 39 36 31 23 17 12 9 9 12 13 10 8 14 15 10 21 27 28 31 39 44 42 51 56 64 58 49 55 58 57 55 54 46 40
55 57 76 78 67 64 56 49 44 45 38 29 22 16 12 10 12 14 14 12 11 11 12 17 19 26 31 33 39 41 42 46 54 61 67 60 55 56 56 47 43 35 31
87 89 90 83 76 68 53 49 48 43 34 27 23 18 14 14 15 15 15 14 15 15 13 15 19 25 31 35 39 40 42 42 43 59 69 72 53 57 45 37 34 34 38
85 92 88 81 67 60 53 48 45 36 27 27 25 19 15 16 15 18 17 18 18 19 13 18 22 26 31 35 38 40 45 44 48 56 61 69 47 52 53 30 32 45 51
88 85 83 74 70 67 65 55 42 34 28 27 25 19 19 18 18 20 20 21 18 16 17 18 24 26 31 38 42 43 47 50 50 49 52 63 46 54 48 31 36 43 51
74 80 84 79 75 71 57 42 35 31 28 26 22 23 23 21 22 23 23 23 21 20 21 21 25 28 33 40 42 49 53 51 56 49 54 59 48 48 43 30 41 48 55
73 74 80 74 57 45 41 31 32 25 24 21 24 26 26 25 23 25 24 25 24 21 20 21 25 29 37 47 51 53 51 55 55 51 54 50 51 50 40 39 50 53 50
72 94 77 69 79 67 57 46 42 36 30 29 33 34 31 28 26 28 29 30 32 29 25 26 26 31 37 44 49 52 50 57 56 48 55 45 46 52 40 40 50 47 48
86 102 93 87 81 69 60 55 46 40 39 38 38 36 33 29 29 28 30 31 32 33 33 25 24 34 37 45 49 51 52 52 49 42 54 42 50 45 35 40 50 47 47
91 90 94 88 75 64 58 53 47 47 44 43 40 37 34 32 29 30 20 23 25 28 36 31 34 41 43 49 50 42 45 41 37 28 66 62 53 43 38 50 48 46 42
87 77 92 91 88 74 59 57 51 51 51 48 43 40 36 33 33 27 21 23 23 26 30 40 44 44 49 58 59 41 43 42 48 29 64 59 53 48 51 54 67 64 50
78 89 87 82 80 71 54 53 51 55 53 50 45 41 37 34 30 26 26 22 22 27 28 28 32 33 38 40 46 44 38 46 56 35 60 55 59 60 44 47 73 77 69
Wind_Direction_500mb
191 193 196 197 198 201 203 205 202 209 203 207 221 230 239 234 236 237 246 272 288 286 298 315 329 339 345 346 349 349 349 349 354 354 356 355 353 350 346 346 337 334 325
195 195 196 194 198 199 199 199 199 201 199 210 226 226 226 235 234 237 239 273 284 279 292 309 325 330 337 346 350 345 345 344 349 352 353 355 353 351 348 341 337 334 329
205 192 194 198 199 199 197 189 193 191 201 211 216 227 230 234 230 238 239 256 271 285 285 301 312 321 330 339 339 338 340 340 343 348 348 345 344 342 341 337 327 331 334
203 197 196 197 201 198 193 194 193 199 205 215 226 224 228 223 235 251 250 258 247 269 306 296 307 311 318 324 329 332 336 339 334 338 338 329 333 333 333 332 331 327 326
208 204 200 199 203 196 198 198 203 207 214 211 223 221 230 254 264 267 257 254 248 246 253 289 303 311 305 312 317 321 326 326 327 326 326 319 322 323 324 325 324 323 320
207 206 198 198 199 196 199 202 204 210 214 212 210 218 228 249 263 262 264 261 255 253 272 268 291 305 310 310 305 307 312 318 324 323 320 318 316 318 316 315 313 312 310
204 209 199 201 196 197 198 205 204 204 199 210 200 238 255 268 270 252 255 249 258 270 264 286 297 282 303 321 307 302 305 311 313 315 314 313 310 310 314 312 308 307 305
212 211 199 205 199 198 198 205 208 201 210 217 221 247 256 258 254 252 259 256 256 266 282 295 292 294 299 297 294 315 308 312 315 314 311 307 305 304 303 310 311 304 294
210 211 203 198 208 195 206 212 216 209 218 216 219 235 260 273 234 270 270 259 277 281 285 297 295 304 313 310 324 314 314 320 319 319 315 313 311 311 313 316 313 314 308
209 214 208 204 208 203 210 218 220 212 204 225 236 240 244 251 260 263 249 298 333 347 277 290 309 325 316 325 327 315 318 323 325 324 324 324 326 325 326 323 319 314 311
211 213 210 207 208 201 213 214 213 208 217 220 229 235 243 259 251 260 283 277 306 306 319 342 310 328 331 334 334 317 326 329 331 330 328 326 327 330 332 334 326 324 332
208 207 202 207 207 208 214 209 211 213 215 218 215 204 170 211 255 262 285 298 277 286 302 314 331 330 333 333 334 318 332 331 333 330 329 327 322 325 332 331 330 334 336
199 206 199 203 206 209 212 209 213 218 225 229 212 196 199 201 188 277 338 321 303 295 313 304 327 333 336 335 331 335 343 327 335 337 336 334 333 326 331 334 321 324 331
197 207 201 203 209 216 215 212 214 218 219 202 187 192 174 156 103 70 51 351 317 299 305 277 320 321 337 336 332 342 340 327 344 341 343 340 336 334 333 328 321 323 328
206 210 205 206 211 210 209 205 210 214 193 185 179 182 170 154 105 69 58 38 5 332 329 344 333 317 339 343 332 343 345 352 338 339 345 342 338 336 331 328 327 326 332
204 225 213 210 209 208 200 202 201 187 182 179 171 165 151 121 78 67 59 43 29 12 337 334 331 329 344 342 336 347 343 356 338 341 339 344 339 334 336 344 347 348 339
208 207 208 206 206 199 190 188 185 176 175 169 155 144 134 95 80 69 59 49 37 34 2 329 343 333 345 339 344 348 347 350 351 336 344 350 342 346 348 359 356 352 338
201 201 199 201 187 179 178 178 168 161 164 152 145 130 104 86 78 69 60 55 43 31 31 351 342 349 339 343 345 348 351 353 356 342 350 341 346 344 345 343 345 345 340
195 196 197 191 179 170 168 163 165 160 159 146 131 109 101 93 87 78 72 59 47 30 20 6 351 342 347 342 349 348 353 354 354 352 345 339 352 346 345 350 353 341 340
194 194 191 186 175 166 156 146 135 147 154 139 114 111 107 98 85 77 66 53 41 37 10 4 352 351 349 352 352 351 353 350 352 352 346 345 349 347 342 351 353 345 343
196 199 181 168 152 144 130 155 154 161 153 134 124 122 109 96 89 79 78 66 57 42 20 9 0 360 358 359 356 353 353 350 353 347 347 352 350 349 6 5 345 347 345
210 176 155 154 160 162 164 158 145 162 156 145 131 118 108 102 93 87 76 64 54 51 34 23 8 8 3 359 354 355 354 352 349 348 352 354 353 349 2 347 332 348 347
179 160 161 161 153 149 146 147 148 159 153 137 125 115 108 103 91 78 70 56 49 41 36 26 18 15 5 0 355 358 354 348 348 351 1 358 356 356 357 343 350 358 355
175 166 161 155 148 147 153 153 151 151 141 129 120 114 108 100 93 79 74 62 48 36 34 31 30 22 15 6 3 0 346 351 355 3 354 3 1 3 19 16 16 12 12
158 173 160 156 147 147 151 151 153 146 136 126 120 114 107 98 85 83 74 64 52 46 16 22 27 22 19 8 5 5 5 12 11 9 6 12 9 20 33 27 35 32 29
173 162 153 148 143 141 154 145 149 141 133 124 119 111 102 93 87 79 80 68 56 41 42 32 27 18 19 13 1 7 13 20 13 13 20 22 32 22 14 26 39 36 37
Wind_Speed_850mb
38 37 34 33 28 29 25 24 23 25 24 21 17 17 17 16 16 15 14 22 24 25 22 25 27 28 28 27 28 30 30 31 35 35 36 36 35 32 31 29 29 29 30
39 37 35 32 29 26 24 24 24 24 22 21 19 18 17 16 17 18 15 20 25 23 23 24 25 24 23 24 26 29 30 33 36 37 39 41 42 40 39 36 33 32 32
45 38 34 32 29 26 25 26 28 27 22 19 20 19 16 17 18 18 14 14 16 21 22 23 22 21 20 20 25 27 29 30 37 42 45 46 44 42 42 39 34 33 37
44 47 36 32 28 26 25 26 26 25 23 22 20 17 19 19 16 21 15 15 15 13 23 22 23 21 20 20 25 28 30 31 36 41 42 46 48 50 47 44 41 43 47
48 47 35 31 34 27 28 28 27 25 24 22 21 17 17 14 17 14 14 14 18 16 13 25 25 25 24 25 27 30 29 32 37 42 49 48 53 52 48 48 47 45 47
50 52 35 33 34 30 30 29 28 26 24 21 15 15 15 13 15 14 14 14 16 15 13 16 17 25 34 32 32 33 36 37 41 48 56 60 57 53 51 48 46 47 49
48 56 38 40 41 33 32 35 32 32 24 21 16 11 12 22 19 11 12 12 15 13 14 15 19 21 25 36 32 35 38 41 48 54 60 63 63 61 54 50 50 49 47
56 55 47 45 46 34 36 39 37 28 22 26 18 19 20 15 9 11 12 12 13 15 14 17 17 19 19 22 35 43 40 48 55 60 62 64 64 64 64 54 51 48 45
60 55 55 41 46 40 39 43 41 34 20 22 29 18 12 15 5 10 11 7 10 9 11 12 11 12 16 18 23 30 50 58 61 62 61 60 57 56 53 48 47 45 43
62 60 60 47 46 42 38 42 38 32 26 18 28 33 32 20 12 9 9 7 5 6 5 5 10 15 22 20 28 40 56 61 61 60 60 61 59 53 48 46 44 43 40
60 65 65 49 48 45 42 38 40 38 29 23 18 16 15 14 23 15 16 8 7 5 4 8 9 15 23 27 28 37 62 63 61 64 66 63 59 52 50 46 37 35 31
69 62 54 49 48 48 43 40 37 39 31 27 16 13 8 5 10 9 12 11 13 11 8 12 17 20 25 29 31 51 56 59 58 60 60 58 54 49 48 43 39 38 36
55 61 57 53 49 49 44 45 42 37 35 29 25 18 12 6 3 0 3 6 10 10 13 18 17 23 27 31 33 50 47 60 61 57 56 51 45 40 45 45 39 43 43
52 59 66 57 51 52 50 47 42 37 32 30 24 18 11 7 6 7 7 8 13 11 15 11 24 23 29 31 37 52 43 53 59 69 54 44 46 45 48 49 46 47 46
54 63 64 68 64 55 54 50 44 39 36 31 23 17 12 9 9 12 13 10 8 14 15 10 21 27 28 31 39 44 42 51 56 64 58 49 55 58 57 55 54 46 40
55 57 76 78 67 64 56 49 44 45 38 29 22 16 12 10 12 14 14 12 11 11 12 17 19 26 31 33 39 41 42 46 54 61 67 60 55 56 56 47 43 35 31
87 89 90 83 76 68 53 49 48 43 34 27 23 18 14 14 15 15 15 14 15 15 13 15 19 25 31 35 39 40 42 42 43 59 69 72 53 57 45 37 34 34 38
85 92 88 81 67 60 53 48 45 36 27 27 25 19 15 16 15 18 17 18 18 19 13 18 22 26 31 35 38 40 45 44 48 56 61 69 47 52 53 30 32 45 51
88 85 83 74 70 67 65 55 42 34 28 27 25 19 19 18 18 20 20 21 18 16 17 18 24 26 31 38 42 43 47 50 50 49 52 63 46 54 48 31 36 43 51
74 80 84 79 75 71 57 42 35 31 28 26 22 23 23 21 22 23 23 23 21 20 21 21 25 28 33 40 42 49 53 51 56 49 54 59 48 48 43 30 41 48 55
73 74 80 74 57 45 41 31 32 25 24 21 24 26 26 25 23 25 24 25 24 21 20 21 25 29 37 47 51 53 51 55 55 51 54 50 51 50 40 39 50 53 50
72 94 77 69 79 67 57 46 42 36 30 29 33 34 31 28 26 28 29 30 32 29 25 26 26 31 37 44 49 52 50 57 56 48 55 45 46 52 40 40 50 47 48
86 102 93 87 81 69 60 55 46 40 39 38 38 36 33 29 29 28 30 31 32 33 33 25 24 34 37 45 49 51 52 52 49 42 54 42 50 45 35 40 50 47 47
91 90 94 88 75 64 58 53 47 47 44 43 40 37 34 32 29 30 20 23 25 28 36 31 34 41 43 49 50 42 45 41 37 28 66 62 53 43 38 50 48 46 42
87 77 92 91 88 74 59 57 51 51 51 48 43 40 36 33 33 27 21 23 23 26 30 40 44 44 49 58 59 41 43 42 48 29 64 59 53 48 51 54 67 64 50
78 89 87 82 80 71 54 53 51 55 53 50 45 41 37 34 30 26 26 22 22 27 28 28 32 33 38 40 46 44 38 46 56 35 60 55 59 60 44 47 73 77 69
Wind_Direction_850mb
191 193 196 197 198 201 203 205 202 209 203 207 221 230 239 234 236 237 246 272 288 286 298 315 329 339 345 346 349 349 349 349 354 354 356 355 353 350 346 346 337 334 325
195 195 196 194 198 199 199 199 199 201 199 210 226 226 226 235 234 237 239 273 284 279 292 309 325 330 337 346 350 345 345 344 349 352 353 355 353 351 348 341 337 334 329
205 192 194 198 199 199 197 189 193 191 201 211 216 227 230 234 230 238 239 256 271 285 285 301 312 321 330 339 339 338 340 340 343 348 348 345 344 342 341 337 327 331 334
203 197 196 197 201 198 193 194 193 199 205 215 226 224 228 223 235 251 250 258 247 269 306 296 307 311 318 324 329 332 336 339 334 338 338 329 333 333 333 332 331 327 326
208 204 200 199 203 196 198 198 203 207 214 211 223 221 230 254 264 267 257 254 248 246 253 289 303 311 305 312 317 321 326 326 327 326 326 319 322 323 324 325 324 323 320
207 206 198 198 199 196 199 202 204 210 214 212 210 218 228 249 263 262 264 261 255 253 272 268 291 305 310 310 305 307 312 318 324 323 320 318 316 318 316 315 313 312 310
204 209 199 201 196 197 198 205 204 204 199 210 200 238 255 268 270 252 255 249 258 270 264 286 297 282 303 321 307 302 305 311 313 315 314 313 310 310 314 312 308 307 305
212 211 199 205 199 198 198 205 208 201 210 217 221 247 256 258 254 252 259 256 256 266 282 295 292 294 299 297 294 315 308 312 315 314 311 307 305 304 303 310 311 304 294
210 211 203 198 208 195 206 212 216 209 218 216 219 235 260 273 234 270 270 259 277 281 285 297 295 304 313 310 324 314 314 320 319 319 315 313 311 311 313 316 313 314 308
209 214 208 204 208 203 210 218 220 212 204 225 236 240 244 251 260 263 249 298 333 347 277 290 309 325 316 325 327 315 318 323 325 324 324 324 326 325 326 323 319 314 311
211 213 210 207 208 201 213 214 213 208 217 220 229 235 243 259 251 260 283 277 306 306 319 342 310 328 331 334 334 317 326 329 331 330 328 326 327 330 332 334 326 324 332
208 207 202 207 207 208 214 209 211 213 215 218 215 204 170 211 255 262 285 298 277 286 302 314 331 330 333 333 334 318 332 331 333 330 329 327 322 325 332 331 330 334 336
199 206 199 203 206 209 212 209 213 218 225 229 212 196 199 201 188 277 338 321 303 295 313 304 327 333 336 335 331 335 343 327 335 337 336 334 333 326 331 334 321 324 331
197 207 201 203 209 216 215 212 214 218 219 202 187 192 174 156 103 70 51 351 317 299 305 277 320 321 337 336 332 342 340 327 344 341 343 340 336 334 333 328 321 323 328
206 210 205 206 211 210 209 205 210 214 193 185 179 182 170 154 105 69 58 38 5 332 329 344 333 317 339 343 332 343 345 352 338 339 345 342 338 336 331 328 327 326 332
204 225 213 210 209 208 200 202 201 187 182 179 171 165 151 121 78 67 59 43 29 12 337 334 331 329 344 342 336 347 343 356 338 341 339 344 339 334 336 344 347 348 339
208 207 208 206 206 199 190 188 185 176 175 169 155 144 134 95 80 69 59 49 37 34 2 329 343 333 345 339 344 348 347 350 351 336 344 350 342 346 348 359 356 352 338
201 201 199 201 187 179 178 178 168 161 164 152 145 130 104 86 78 69 60 55 43 31 31 351 342 349 339 343 345 348 351 353 356 342 350 341 346 344 345 343 345 345 340
195 196 197 191 179 170 168 163 165 160 159 146 131 109 101 93 87 78 72 59 47 30 20 6 351 342 347 342 349 348 353 354 354 352 345 339 352 346 345 350 353 341 340
194 194 191 186 175 166 156 146 135 147 154 139 114 111 107 98 85 77 66 53 41 37 10 4 352 351 349 352 352 351 353 350 352 352 346 345 349 347 342 351 353 345 343
196 199 181 168 152 144 130 155 154 161 153 134 124 122 109 96 89 79 78 66 57 42 20 9 0 360 358 359 356 353 353 350 353 347 347 352 350 349 6 5 345 347 345
210 176 155 154 160 162 164 158 145 162 156 145 131 118 108 102 93 87 76 64 54 51 34 23 8 8 3 359 354 355 354 352 349 348 352 354 353 349 2 347 332 348 347
179 160 161 161 153 149 146 147 148 159 153 137 125 115 108 103 91 78 70 56 49 41 36 26 18 15 5 0 355 358 354 348 348 351 1 358 356 356 357 343 350 358 355
175 166 161 155 148 147 153 153 151 151 141 129 120 114 108 100 93 79 74 62 48 36 34 31 30 22 15 6 3 0 346 351 355 3 354 3 1 3 19 16 16 12 12
158 173 160 156 147 147 151 151 153 146 136 126 120 114 107 98 85 83 74 64 52 46 16 22 27 22 19 8 5 5 5 12 11 9 6 12 9 20 33 27 35 32 29
173 162 153 148 143 141 154 145 149 141 133 124 119 111 102 93 87 79 80 68 56 41 42 32 27 18 19 13 1 7 13 20 13 13 20 22 32 22 14 26 39 36 37